Wind_Speed
36 35 36 36 35 35 36 36 37 37 36 36 36 36 35 35 35 35 35 35 35 35 35 35 35 36 37 37 38 38 39 39 39 39 38 38 38 39 39 38 38 38 38
38 37 37 37 36 36 36 37 37 37 38 38 38 38 37 37 37 36 37 37 37 37 36 36 37 38 38 38 39 39 39 40 40 40 39 39 40 40 40 40 39 39 39
38 38 38 37 37 38 38 38 38 39 39 39 39 39 38 38 39 39 38 38 38 39 39 39 39 39 39 40 40 40 40 40 40 41 41 41 41 41 42 42 42 42 41
39 39 38 39 39 40 40 40 40 40 41 41 41 40 40 40 40 40 40 40 40 40 40 41 41 41 41 41 41 42 42 42 43 43 44 44 44 44 44 44 43 44 44
41 41 40 40 40 41 41 41 41 42 42 42 42 42 43 42 42 42 42 42 42 42 42 42 42 43 43 43 43 43 43 44 44 45 45 46 46 46 46 46 46 46 46
42 42 42 42 42 42 42 42 42 43 44 43 44 44 45 44 44 44 44 43 43 43 43 44 44 44 45 45 45 45 46 46 46 47 47 47 48 48 49 49 49 49 49
42 43 43 43 43 44 44 44 44 44 45 45 46 46 46 46 46 46 45 45 45 45 45 45 45 46 46 47 47 47 47 48 48 48 49 50 50 51 51 51 51 51 51
44 44 44 43 44 45 45 45 45 46 46 47 48 48 47 47 47 46 47 46 46 46 47 47 47 48 48 49 49 49 49 49 50 50 51 51 52 52 52 52 52 52 52
45 46 45 45 45 46 46 46 46 46 47 48 49 49 49 48 48 48 47 47 48 48 49 49 49 48 49 49 50 50 50 50 50 50 51 51 51 52 52 52 53 53 53
46 47 47 46 46 47 48 48 48 48 48 48 49 50 50 50 50 49 49 49 49 49 49 50 50 49 49 48 48 48 48 49 49 50 51 51 52 52 52 53 54 54 55
48 48 48 48 49 48 49 49 49 49 49 49 50 50 51 51 52 51 51 51 51 51 50 49 49 49 48 49 49 48 48 49 50 50 50 51 51 52 53 53 54 54 55
48 48 48 48 49 49 49 49 50 50 50 50 50 51 52 52 51 52 52 52 52 50 49 49 49 49 49 49 49 49 50 50 50 50 50 51 52 52 53 53 54 53 53
49 49 48 48 50 51 51 51 51 51 51 51 51 51 52 52 53 52 52 52 51 50 49 49 49 49 49 49 49 50 50 50 49 49 49 50 50 51 52 52 52 52 52
49 50 49 49 50 52 52 52 52 52 51 51 51 52 52 52 52 51 51 51 50 48 48 48 49 49 50 50 49 49 49 49 48 49 49 49 49 49 49 50 50 51 50
48 49 49 49 50 51 52 52 52 52 52 52 52 52 53 52 51 51 50 50 49 47 46 47 48 48 49 49 48 48 48 48 47 47 47 47 47 47 48 48 47 47 47
47 48 48 49 49 50 50 50 52 52 53 53 53 52 52 51 50 50 50 49 49 48 46 46 47 47 47 47 47 47 46 45 45 45 46 45 45 45 45 45 44 44 44
46 47 47 48 49 49 50 50 50 51 51 51 51 51 50 50 50 50 49 49 49 48 47 45 45 45 45 44 44 43 43 43 43 43 44 44 44 44 44 43 43 42 42
44 45 46 46 47 48 49 49 50 49 49 48 49 49 49 49 49 49 48 48 48 48 47 45 44 44 42 43 43 42 42 41 41 40 41 41 42 43 43 43 42 41 41
42 43 44 44 45 46 47 47 47 47 47 47 47 47 47 47 47 47 48 46 46 46 45 44 43 42 42 41 41 41 41 40 40 38 38 39 40 40 41 40 39 39 39
40 41 42 42 43 44 44 45 44 44 45 45 44 44 44 44 44 45 45 44 44 44 43 43 42 40 40 40 40 40 39 39 38 38 38 38 37 38 38 37 37 36 36
38 39 39 40 40 41 41 42 43 43 43 43 42 42 42 42 42 43 43 43 43 43 44 43 41 39 39 39 39 38 38 38 38 37 36 36 36 35 35 35 35 35 36
36 37 37 38 38 39 39 39 40 41 41 41 41 40 40 41 41 41 42 41 42 42 42 42 41 39 38 38 37 38 37 36 35 35 35 35 35 34 34 33 33 33 33
34 35 36 36 36 37 38 38 38 38 38 38 38 39 39 40 40 40 40 39 39 40 40 40 39 38 37 37 36 36 35 35 34 34 33 33 33 33 32 32 31 31 31
33 33 34 34 35 36 36 36 36 36 36 36 36 35 36 37 38 38 37 37 37 37 37 37 36 35 35 34 33 33 32 33 33 33 32 31 31 31 31 30 30 29 28
31 32 32 32 33 33 33 33 34 34 33 33 33 34 34 34 33 33 33 32 32 32 32 32 32 32 31 31 31 30 30 31 30 30 29 29 28 28 28 27 26 25 23
30 31 30 30 29 30 30 31 31 31 30 31 31 32 31 30 30 29 29 28 28 28 28 28 28 28 27 26 27 27 27 27 26 26 26 26 26 25 24 23 22 22 22
Wind_Direction
262 262 259 257 258 258 259 259 260 261 262 262 264 265 265 267 267 268 269 270 271 272 274 273 272 272 272 273 273 273 273 272 272 272 272 272 272 271 273 275 275 275 275
262 262 259 257 257 258 259 261 262 263 262 262 263 265 266 266 267 267 269 270 271 272 273 273 274 273 273 273 273 274 274 273 272 271 272 272 272 272 273 274 274 275 276
262 261 258 256 257 258 259 261 262 264 264 264 264 266 267 267 268 268 269 270 271 272 273 273 273 274 273 272 271 272 274 273 272 272 271 272 273 273 273 274 274 274 275
260 260 257 257 258 259 260 261 263 264 264 265 266 266 267 268 268 269 269 270 270 271 272 273 273 273 273 273 273 273 274 274 273 273 272 273 273 273 274 274 275 275 275
260 259 257 258 259 261 261 262 263 264 265 266 266 267 268 268 269 270 270 270 270 271 273 273 273 273 274 274 274 274 274 274 274 274 274 273 273 273 274 274 275 275 275
261 258 258 258 260 262 262 263 263 264 265 266 267 267 268 269 269 269 270 270 270 272 273 273 273 274 274 274 275 275 274 274 274 274 275 274 274 274 274 273 274 274 275
259 258 259 260 262 263 263 263 264 264 266 267 267 267 268 269 269 268 269 269 270 271 272 273 273 274 275 275 274 274 274 274 274 274 274 274 275 274 274 273 273 274 274
257 257 259 262 263 263 263 263 265 265 266 267 267 267 267 268 268 269 269 269 271 271 272 272 273 274 275 275 275 275 274 274 274 274 274 274 274 274 273 273 273 273 273
257 258 259 262 263 262 262 263 265 266 267 268 267 268 268 268 268 269 269 270 271 272 273 273 273 274 275 276 275 274 274 274 274 274 275 275 274 273 273 273 273 273 273
259 259 260 263 263 263 263 264 265 266 268 268 268 268 269 269 269 269 269 270 272 272 273 273 273 273 274 275 275 274 273 274 275 275 276 275 274 274 274 274 274 274 273
259 260 262 263 263 263 264 265 266 267 269 269 269 268 268 270 271 271 271 271 271 272 272 272 272 272 273 274 274 274 274 275 276 277 276 275 275 275 276 275 275 275 274
260 261 264 264 263 263 264 266 267 268 269 270 269 269 270 271 271 271 272 271 270 270 271 271 271 272 273 274 274 275 276 277 277 277 276 276 276 276 277 276 276 276 276
261 262 264 264 264 264 265 266 266 268 269 269 270 271 271 272 272 271 271 270 270 269 271 271 272 273 274 274 275 275 276 276 277 277 278 278 278 277 277 277 276 276 276
263 263 264 265 265 264 265 266 266 267 268 270 270 271 271 271 271 271 271 271 271 270 271 271 272 273 274 274 275 275 276 276 276 277 277 277 277 278 278 278 277 277 276
263 264 264 265 265 265 266 266 266 267 268 270 271 271 271 270 270 270 271 271 272 272 272 272 272 273 273 274 274 275 275 276 276 277 276 277 278 279 279 279 278 278 277
266 265 265 266 266 266 267 267 268 269 269 270 270 271 271 269 269 269 270 270 270 272 273 273 273 273 273 273 273 274 275 275 276 275 275 277 279 279 279 279 279 278 277
267 266 266 267 268 267 267 268 269 270 270 270 271 271 271 270 268 268 269 269 270 272 273 272 274 275 273 273 273 274 275 275 275 275 276 277 278 279 280 279 278 277 277
268 267 268 268 268 268 268 269 270 269 270 271 271 272 271 269 269 268 269 270 271 272 274 274 274 274 272 272 272 273 275 276 277 277 276 276 277 278 279 278 278 277 277
270 269 269 269 269 269 268 268 269 269 270 271 271 271 269 269 269 268 268 270 270 271 274 274 274 273 272 272 272 273 275 277 276 276 277 277 277 277 278 278 278 276 276
270 270 270 270 270 269 268 268 268 269 269 269 269 269 269 269 269 269 269 269 270 271 272 273 272 272 272 272 272 272 273 275 276 276 278 278 278 279 278 278 278 277 277
271 271 271 271 270 270 269 268 268 269 268 268 269 269 269 268 269 270 270 269 270 271 272 272 272 272 273 273 273 273 274 275 275 276 277 277 279 279 279 280 279 279 279
272 271 271 272 270 270 270 270 270 270 269 269 268 268 268 268 268 269 270 270 270 270 271 272 272 272 272 273 273 273 275 275 276 276 277 278 279 280 279 279 279 280 280
273 273 272 272 270 270 271 271 270 271 270 269 269 268 267 269 268 268 269 270 270 270 272 273 273 272 272 273 273 273 275 276 276 275 276 278 279 280 280 279 280 280 281
274 273 273 272 271 271 272 271 270 270 270 269 268 268 270 269 269 267 268 268 269 271 273 274 274 272 272 273 273 275 274 275 276 275 276 277 278 279 279 279 280 280 280
275 275 275 273 272 273 272 272 271 269 268 268 267 268 270 270 267 265 266 268 269 270 272 274 273 272 271 272 272 273 274 275 274 275 276 277 278 279 280 278 278 279 279
275 274 274 273 272 274 274 273 271 270 268 267 267 268 269 268 265 263 265 267 268 270 271 272 272 269 268 270 270 272 274 273 273 275 276 277 278 280 279 277 276 277 279
Height
5777 5777 5778 5780 5781 5781 5782 5783 5783 5784 5785 5785 5785 5785 5786 5785 5785 5785 5785 5784 5783 5783 5782 5781 5780 5779 5779 5778 5777 5776 5775 5775 5774 5774 5773 5773 5772 5772 5771 5770 5770 5770 5769
5769 5769 5770 5772 5773 5773 5774 5775 5775 5776 5776 5777 5777 5777 5777 5777 5777 5777 5777 5776 5776 5775 5774 5773 5772 5771 5770 5769 5768 5767 5766 5765 5765 5764 5764 5763 5763 5762 5762 5761 5761 5760 5760
5760 5761 5762 5763 5764 5765 5766 5767 5767 5768 5768 5768 5769 5769 5769 5769 5768 5768 5768 5768 5767 5766 5765 5764 5763 5762 5761 5760 5759 5758 5757 5756 5755 5755 5754 5754 5753 5753 5752 5752 5751 5751 5750
5751 5752 5754 5755 5756 5756 5757 5758 5759 5759 5759 5759 5759 5760 5760 5760 5759 5759 5759 5758 5758 5757 5756 5755 5754 5752 5751 5750 5749 5748 5747 5746 5745 5745 5744 5744 5743 5743 5742 5742 5741 5741 5740
5742 5743 5745 5746 5746 5747 5748 5749 5749 5750 5749 5750 5750 5750 5750 5750 5750 5749 5749 5748 5748 5747 5746 5745 5743 5742 5741 5740 5739 5738 5737 5736 5735 5734 5733 5733 5732 5732 5731 5731 5730 5729 5729
5733 5734 5735 5736 5737 5738 5738 5739 5739 5739 5740 5740 5740 5740 5740 5740 5739 5739 5739 5738 5737 5737 5735 5734 5733 5732 5731 5729 5728 5727 5726 5725 5723 5722 5722 5721 5720 5720 5719 5719 5718 5718 5717
5723 5724 5725 5726 5727 5728 5728 5729 5729 5729 5729 5729 5729 5729 5729 5729 5728 5728 5727 5727 5727 5726 5724 5723 5722 5721 5719 5718 5717 5716 5714 5713 5712 5711 5710 5709 5708 5707 5706 5706 5705 5705 5704
5713 5714 5714 5715 5716 5717 5717 5717 5718 5718 5718 5718 5718 5717 5718 5718 5717 5717 5716 5716 5715 5714 5713 5712 5710 5709 5708 5706 5704 5703 5702 5701 5699 5698 5697 5696 5695 5694 5693 5692 5692 5691 5691
5702 5703 5703 5704 5704 5705 5706 5706 5706 5707 5707 5706 5705 5705 5705 5706 5706 5705 5704 5703 5703 5702 5700 5699 5698 5696 5695 5693 5692 5691 5689 5688 5686 5685 5683 5682 5681 5680 5679 5678 5677 5677 5676
5690 5691 5692 5692 5693 5693 5694 5694 5694 5694 5694 5694 5693 5692 5692 5692 5692 5693 5692 5691 5689 5688 5687 5686 5684 5683 5682 5680 5679 5677 5676 5675 5673 5671 5670 5669 5667 5666 5665 5663 5662 5662 5661
5678 5679 5680 5680 5681 5681 5681 5682 5682 5682 5682 5681 5681 5680 5679 5679 5678 5678 5679 5678 5676 5675 5673 5672 5671 5670 5669 5668 5666 5665 5663 5662 5660 5658 5656 5655 5653 5652 5650 5649 5648 5647 5646
5666 5667 5667 5667 5668 5668 5669 5669 5669 5669 5668 5668 5667 5667 5666 5665 5665 5664 5664 5664 5663 5662 5660 5659 5658 5657 5656 5655 5653 5652 5650 5648 5646 5644 5643 5641 5639 5638 5636 5635 5634 5632 5631
5653 5654 5654 5654 5654 5655 5655 5655 5655 5655 5654 5654 5654 5653 5652 5651 5650 5649 5649 5649 5649 5649 5647 5646 5644 5644 5642 5641 5640 5638 5636 5634 5632 5631 5629 5627 5626 5624 5622 5621 5619 5618 5617
5640 5640 5641 5641 5641 5641 5641 5641 5641 5641 5640 5640 5639 5638 5637 5637 5636 5635 5634 5634 5635 5636 5635 5634 5632 5630 5629 5628 5626 5624 5623 5621 5619 5617 5616 5614 5612 5610 5609 5607 5605 5604 5603
5627 5627 5627 5627 5627 5627 5627 5627 5627 5627 5626 5625 5624 5623 5622 5622 5621 5621 5620 5620 5621 5622 5623 5621 5619 5617 5616 5614 5613 5611 5610 5608 5606 5604 5603 5601 5599 5598 5596 5594 5592 5591 5590
5614 5614 5614 5614 5614 5613 5613 5613 5613 5612 5611 5611 5610 5609 5608 5608 5607 5607 5607 5606 5606 5607 5609 5609 5606 5604 5602 5601 5600 5598 5597 5595 5594 5592 5590 5589 5587 5585 5584 5582 5580 5579 5578
5601 5601 5601 5601 5600 5600 5600 5599 5599 5598 5597 5597 5596 5595 5594 5593 5594 5594 5593 5594 5594 5593 5594 5595 5593 5592 5590 5588 5587 5586 5585 5583 5581 5580 5578 5577 5575 5574 5572 5570 5569 5568 5566
5589 5588 5588 5587 5587 5587 5586 5586 5586 5585 5584 5584 5583 5581 5580 5580 5580 5580 5580 5581 5581 5580 5580 5581 5581 5579 5577 5576 5575 5574 5573 5572 5570 5569 5567 5565 5564 5562 5561 5559 5558 5557 5556
5576 5575 5575 5575 5574 5574 5573 5573 5573 5572 5572 5571 5570 5568 5567 5567 5568 5568 5568 5568 5568 5568 5567 5567 5568 5566 5565 5565 5564 5563 5562 5561 5560 5558 5556 5555 5553 5552 5550 5549 5547 5546 5546
5564 5564 5563 5562 5562 5561 5561 5560 5560 5559 5559 5558 5557 5556 5555 5555 5555 5556 5556 5556 5556 5556 5555 5554 5555 5554 5554 5553 5552 5552 5552 5550 5549 5548 5546 5545 5544 5542 5540 5539 5538 5537 5536
5553 5552 5551 5550 5549 5549 5548 5548 5548 5547 5547 5546 5545 5544 5544 5544 5544 5544 5544 5544 5544 5544 5543 5543 5543 5543 5543 5542 5542 5541 5540 5540 5538 5537 5536 5535 5534 5533 5531 5530 5528 5527 5526
5541 5540 5540 5539 5538 5537 5537 5536 5535 5535 5534 5534 5534 5533 5533 5533 5533 5533 5533 5533 5533 5533 5533 5532 5532 5532 5532 5532 5531 5530 5530 5529 5529 5529 5527 5526 5525 5524 5522 5521 5520 5518 5517
5530 5530 5529 5528 5527 5526 5525 5524 5523 5523 5523 5523 5522 5522 5522 5522 5522 5522 5522 5522 5522 5522 5522 5522 5522 5522 5522 5522 5522 5521 5520 5519 5519 5518 5517 5517 5515 5514 5513 5512 5511 5510 5509
5520 5519 5518 5517 5517 5516 5515 5514 5512 5512 5512 5512 5512 5512 5512 5512 5511 5512 5512 5512 5512 5512 5512 5512 5513 5513 5512 5512 5512 5512 5511 5510 5510 5509 5508 5508 5507 5505 5504 5504 5503 5501 5500
5510 5509 5508 5507 5507 5506 5504 5503 5502 5502 5502 5502 5502 5502 5502 5502 5502 5502 5503 5503 5503 5503 5502 5502 5503 5503 5503 5503 5503 5503 5503 5502 5502 5501 5500 5500 5499 5498 5496 5496 5495 5494 5493
5501 5500 5499 5498 5497 5496 5495 5494 5493 5493 5493 5493 5493 5493 5493 5493 5493 5493 5494 5495 5495 5495 5494 5494 5494 5494 5494 5494 5494 5494 5494 5494 5494 5494 5493 5492 5491 5490 5490 5489 5488 5487 5487